Location: *
(44.3683°N, 6.6958°E)
Time: 09:29:11
(UTC+00:00)

Cosmos 1953 - Pass Details

Date: 14 October 2019
Orbit: 538 x 559 km, 82.5° (Epoch: 21 November)

Event Time Altitude Azimuth Distance (km) Brightness Sun altitude
Rises 17:35:50 0° 183° (S) 2,727 6.0 -8.7°
Reaches altitude 10° 17:37:59 10° 182° (S) 1,839 5.1 -9.1°
Maximum altitude 17:42:01 78° 98° (E) 578 2.3 -9.8°
Drops below altitude 10° 17:46:07 10° 11° (N) 1,858 4.9 -10.5°
Sets 17:48:18 0° 10° (N) 2,758 5.8 -10.9°
